Flag for Germany Weather past 2 weeks in Lohmar, North Rhine-Westphalia, Germany

Now
84 °F

Scattered showers. Broken clouds.


Feels Like: 84 °F
Forecast: 60 / 80 °F
Wind: 3 mph from North

Location: Koeln / Bonn

Current Time: Jul 23, 2014 at 3:33:58 PM

Latest Report: Jul 23, 2014 at 2:50 PM


Visibility: N/A

Pressure: 30.01 "Hg

Humidity: 43%

Dew point: 59 °F

Location of LohmarLocation

Historic Weather in Lohmar — Graph

°F

Lohmar temperature yesterday

Maximum temperature yesterday: 82 °F (at 2:50 PM)
Minimum temperature yesterday: 66 °F (at 12:20 AM)
Average temperature yesterday: 73 °F

Past Weeks' High & Low Weather Summary

 TemperatureHumidityPressure
High91 °F (Jul 19, 2:50 PM)100% (Jul 8, 1:20 PM)30.18 "Hg (Jul 8, 1:20 PM)
Low54 °F (Jul 8, 10:20 PM)26% (Jul 19, 2:50 PM)29.65 "Hg (Jul 9, 5:20 PM)
Average69 °F77%29.94 "Hg
* Reported Jul 8 1:20 PM — Jul 23 1:50 PM, Lohmar, Weather by CustomWeather, © 2014

Note: Actual official high and low records may vary slightly from our data, if they occured in-between our weather recording intervals... More about our weather records

Advertising

Lohmar weather history for previous 24 hours

 ConditionsComfort  
Time TempWeatherWind HumidityBarometerVisibility
1:50 PM
Jul 23
84 °FPartly sunny.3 mph48%30.01 "HgN/A
1:20 PM82 °FPartly sunny.7 mph51%30.04 "HgN/A
12:50 PM82 °FPartly sunny.3 mph45%30.04 "HgN/A
12:20 PM81 °FSunny.3 mph54%30.04 "Hg10 mi
11:50 AM81 °FSunny.3 mph54%30.04 "Hg10 mi
11:20 AM79 °FSunny.2 mph54%30.04 "Hg10 mi
7:20 AM64 °FSunny.3 mph94%30.07 "Hg10 mi
6:50 AM63 °FSunny.3 mph100%30.07 "Hg10 mi
6:20 AM63 °FFog.2 mph94%30.07 "HgN/A
5:50 AM63 °FFog.3 mph94%30.07 "HgN/A
5:20 AM63 °FFog.3 mph94%30.04 "HgN/A
4:50 AM63 °FFog.1 mph94%30.04 "HgN/A
4:20 AM63 °FFog.3 mph94%30.07 "HgN/A
3:50 AM63 °FFog.3 mph94%30.07 "HgN/A
3:20 AM64 °FFog.5 mph94%30.07 "HgN/A
2:50 AM64 °FFog.2 mph94%30.07 "HgN/A
2:20 AM64 °FFog.2 mph88%30.07 "HgN/A
1:50 AM64 °FFog.2 mph94%30.07 "HgN/A
6:50 PM
Jul 22
79 °FPartly sunny.12 mph61%30.01 "HgN/A
6:20 PM79 °FPartly sunny.10 mph61%30.01 "HgN/A
5:50 PM81 °FPartly sunny.13 mph54%30.01 "HgN/A
5:20 PM81 °FPartly sunny.12 mph58%30.01 "HgN/A
4:50 PM82 °FPartly sunny.14 mph55%30.01 "HgN/A
4:20 PM82 °FPartly sunny.12 mph58%30.01 "HgN/A
3:50 PM82 °FPartly sunny.12 mph55%30.01 "HgN/A
3:20 PM81 °FPartly sunny.10 mph58%30.01 "HgN/A
Weather by CustomWeather, © 2014

See weather overviewHow to use our weather pages